Location: Antioch Baptist Church
(32.6696°N, 85.7327°W)
Time: 11:24:57
(UTC+00:00)

Cosmos 1833 Rocket - Pass Details

Date: 14 July 2020
Orbit: 832 x 840 km, 71.0° (Epoch: 09 August)

Event Time Altitude Azimuth Distance (km) Brightness Sun altitude
Exits shadow 07:31:49 62° 352° (N) 930 3.0 -30.4°
Drops below altitude 10° 07:36:33 10° 17° (NNE) 2,445 6.0 -30.0°
Sets 07:39:00 0° 19° (NNE) 3,383 7.0 -29.7°
